TimeAKDT,TemperatureF,Dew PointF,Humidity,Sea Level PressureIn,VisibilityMPH,Wind Direction,Wind SpeedMPH,Gust SpeedMPH,PrecipitationIn,Events,Conditions,WindDirDegrees,DateUTC
12:53 AM,19.0,15.1,85,30.22,10.0,NNW,12.7,-,N/A,,Clear,330,2012-10-31 08:53:00
1:53 AM,18.0,14.0,84,30.20,10.0,NNW,15.0,-,N/A,,Partly Cloudy,340,2012-10-31 09:53:00
2:53 AM,17.1,12.9,84,30.20,10.0,NNW,15.0,-,N/A,,Clear,330,2012-10-31 10:53:00
3:53 AM,16.0,12.0,84,30.19,10.0,NNW,13.8,-,N/A,,Partly Cloudy,330,2012-10-31 11:53:00
3:55 AM,16.0,12.0,84,30.19,10.0,NNW,13.8,-,N/A,,Partly Cloudy,330,2012-10-31 11:55:00
4:53 AM,16.0,12.0,84,30.17,10.0,NNW,17.3,-,N/A,,Partly Cloudy,330,2012-10-31 12:53:00
5:53 AM,17.1,12.0,81,30.16,10.0,NNW,18.4,-,N/A,,Partly Cloudy,330,2012-10-31 13:53:00
6:53 AM,17.1,12.9,84,30.15,10.0,NNW,18.4,-,N/A,,Partly Cloudy,330,2012-10-31 14:53:00
7:53 AM,17.1,12.9,84,30.14,10.0,NNW,21.9,27.6,N/A,,Partly Cloudy,340,2012-10-31 15:53:00
8:53 AM,17.1,12.9,84,30.12,10.0,NNW,24.2,29.9,N/A,,Partly Cloudy,340,2012-10-31 16:53:00
9:53 AM,18.0,12.9,81,30.11,10.0,NNW,26.5,31.1,N/A,,Partly Cloudy,340,2012-10-31 17:53:00
10:53 AM,18.0,12.9,81,30.11,10.0,North,17.3,26.5,N/A,,Clear,350,2012-10-31 18:53:00
11:53 AM,19.9,14.0,78,30.10,10.0,NNW,21.9,27.6,N/A,,Partly Cloudy,340,2012-10-31 19:53:00
12:53 PM,21.0,14.0,74,30.08,10.0,North,23.0,32.2,N/A,,Partly Cloudy,350,2012-10-31 20:53:00
1:53 PM,23.0,12.0,63,30.05,9.0,North,26.5,34.5,N/A,,Partly Cloudy,350,2012-10-31 21:53:00
2:53 PM,24.1,10.9,57,30.03,10.0,North,31.1,38.0,N/A,,Scattered Clouds,350,2012-10-31 22:53:00
3:53 PM,25.0,10.0,53,30.01,8.0,North,29.9,36.8,N/A,,Clear,350,2012-10-31 23:53:00
4:53 PM,25.0,10.0,53,29.98,6.0,North,27.6,42.6,N/A,,Widespread Dust,350,2012-11-01 00:53:00
5:53 PM,24.1,10.0,55,29.97,10.0,North,28.8,39.1,N/A,,Clear,350,2012-11-01 01:53:00
6:53 PM,21.9,10.0,60,29.97,10.0,North,25.3,33.4,N/A,,Clear,350,2012-11-01 02:53:00
7:53 PM,21.0,10.0,63,29.98,10.0,North,25.3,35.7,N/A,,Clear,350,2012-11-01 03:53:00
8:53 PM,19.9,10.0,65,29.97,10.0,North,27.6,34.5,N/A,,Clear,350,2012-11-01 04:53:00
9:53 PM,19.0,10.0,68,29.97,10.0,North,23.0,32.2,N/A,,Clear,350,2012-11-01 05:53:00
10:53 PM,19.0,9.0,65,29.96,10.0,North,23.0,29.9,N/A,,Clear,350,2012-11-01 06:53:00
11:53 PM,19.9,8.1,60,29.95,10.0,North,21.9,31.1,N/A,,Clear,350,2012-11-01 07:53:00